When you browse on this site, cookies collect data to enhance your experience and personalize the content and advertising you see.
Visit our Privacy Policy to learn more. By continuing to use the site, you agree to this use of cookies and data.
  • In Netherlands
  • List of Countries
  • For 7 days
  • Water Temperature
  • Weather Map
  • Weather Widgets
  • user-avatar
    Login

    Hourly Weather Oupeye

    Today, 31 March, Tuesday

    Time Temperature Precipitation Wind Pressure Humidity
    00:00 +2°C° 0 mm 2 mps 762 mmHg 96%
    01:00 +2°C° 0 mm 2 mps 762 mmHg 96%
    02:00 +1°C° 0 mm 2 mps 762 mmHg 97%
    03:00 +1°C° 0 mm 2 mps 762 mmHg 97%
    04:00 +1°C° 0 mm 2 mps 762 mmHg 96%
    05:00 0°C° 0 mm 3 mps 763 mmHg 94%
    06:00 0°C° 0 mm 3 mps 764 mmHg 93%
    07:00 +2°C° 0 mm 3 mps 764 mmHg 86%
    08:00 +3°C° 0 mm 4 mps 764 mmHg 79%
    09:00 +4°C° 0 mm 4 mps 764 mmHg 72%
    10:00 +5°C° 0 mm 4 mps 764 mmHg 64%
    11:00 +6°C° 0 mm 4 mps 763 mmHg 56%
    12:00 +7°C° 0 mm 4 mps 763 mmHg 48%
    13:00 +8°C° 0 mm 4 mps 763 mmHg 46%
    14:00 +8°C° 0 mm 4 mps 763 mmHg 44%
    15:00 +8°C° 0 mm 4 mps 762 mmHg 43%
    16:00 +7°C° 0 mm 3 mps 762 mmHg 48%
    17:00 +5°C° 0 mm 3 mps 762 mmHg 54%
    18:00 +3°C° 0 mm 3 mps 762 mmHg 60%
    19:00 +3°C° 0 mm 2 mps 762 mmHg 62%
    20:00 +3°C° 0 mm 2 mps 762 mmHg 65%
    21:00 +2°C° 0 mm 2 mps 762 mmHg 67%
    22:00 +1°C° 0 mm 2 mps 762 mmHg 69%
    23:00 +2°C° 0 mm 1 mps 762 mmHg 71%

    Tomorrow, 1 April, Wednesday

    Time Temperature Precipitation Wind Pressure Humidity
    00:00 +1°C° 0 mm 1 mps 762 mmHg 73%
    01:00 +1°C° 0 mm 1 mps 761 mmHg 73%
    02:00 +1°C° 0 mm 1 mps 761 mmHg 74%
    03:00 -1°C° 0 mm 0 mps 760 mmHg 75%
    04:00 0°C° 0 mm 0 mps 760 mmHg 73%
    05:00 0°C° 0 mm 0 mps 760 mmHg 72%
    06:00 0°C° 0 mm 0 mps 760 mmHg 70%
    07:00 +2°C° 0 mm 0 mps 760 mmHg 64%
    08:00 +5°C° 0 mm 1 mps 759 mmHg 57%
    09:00 +8°C° 0 mm 1 mps 759 mmHg 51%
    10:00 +9°C° 0 mm 1 mps 759 mmHg 48%
    11:00 +9°C° 0 mm 2 mps 758 mmHg 45%
    12:00 +9°C° 0 mm 2 mps 758 mmHg 42%
    13:00 +10°C° 0 mm 2 mps 757 mmHg 43%
    14:00 +10°C° 0 mm 2 mps 756 mmHg 44%
    15:00 +10°C° 0 mm 2 mps 756 mmHg 44%
    16:00 +8°C° 0 mm 2 mps 756 mmHg 53%
    17:00 +7°C° 0 mm 2 mps 755 mmHg 61%
    18:00 +5°C° 0 mm 2 mps 755 mmHg 69%
    19:00 +4°C° 0 mm 2 mps 755 mmHg 75%
    20:00 +4°C° 0 mm 1 mps 755 mmHg 80%
    21:00 +3°C° 0 mm 1 mps 756 mmHg 86%
    22:00 +3°C° 0 mm 1 mps 755 mmHg 86%
    23:00 +2°C° 0 mm 1 mps 755 mmHg 87%

    Day after tomorrow, 2 April, Thursday

    Time Temperature Precipitation Wind Pressure Humidity
    00:00 +1°C° 0 mm 0 mps 755 mmHg 88%
    01:00 +1°C° 0 mm 0 mps 755 mmHg 88%
    02:00 0°C° 0 mm 0 mps 755 mmHg 89%
    03:00 +1°C° 0 mm 1 mps 754 mmHg 90%
    04:00 +1°C° 0 mm 1 mps 754 mmHg 90%
    05:00 +2°C° 0 mm 1 mps 754 mmHg 89%
    06:00 +2°C° 0 mm 1 mps 754 mmHg 88%
    07:00 +4°C° 0 mm 1 mps 754 mmHg 80%
    08:00 +5°C° 0 mm 2 mps 754 mmHg 71%
    09:00 +7°C° 0 mm 2 mps 753 mmHg 62%
    10:00 +7°C° 0 mm 3 mps 753 mmHg 61%
    11:00 +8°C° 0 mm 3 mps 753 mmHg 60%
    12:00 +8°C° 0 mm 3 mps 753 mmHg 59%
    13:00 +8°C° 0 mm 3 mps 752 mmHg 60%
    14:00 +8°C° 0 mm 3 mps 752 mmHg 62%
    15:00 +7°C° 0 mm 4 mps 751 mmHg 63%
    16:00 +8°C° 0 mm 3 mps 751 mmHg 67%
    17:00 +7°C° 0 mm 3 mps 751 mmHg 71%
    18:00 +5°C° 0 mm 3 mps 751 mmHg 75%
    19:00 +5°C° 0 mm 3 mps 751 mmHg 78%
    20:00 +4°C° 0 mm 3 mps 752 mmHg 81%
    21:00 +3°C° 0 mm 3 mps 752 mmHg 84%
    22:00 +3°C° 0 mm 4 mps 752 mmHg 86%
    23:00 +4°C° 0 mm 4 mps 752 mmHg 89%

    3 April, Friday

    Time Temperature Precipitation Wind Pressure Humidity
    00:00 +4°C° 0 mm 4 mps 752 mmHg 92%
    01:00 +4°C° 0.1 mm 4 mps 752 mmHg 93%
    02:00 +4°C° 0.1 mm 4 mps 752 mmHg 94%
    03:00 +4°C° 0.1 mm 3 mps 752 mmHg 95%
    04:00 +4°C° 0 mm 3 mps 752 mmHg 95%
    05:00 +4°C° 0 mm 3 mps 752 mmHg 95%
    06:00 +4°C° 0 mm 3 mps 753 mmHg 95%
    07:00 +5°C° 0 mm 3 mps 753 mmHg 88%
    08:00 +6°C° 0 mm 4 mps 753 mmHg 81%
    09:00 +8°C° 0 mm 4 mps 754 mmHg 74%
    10:00 +8°C° 0.1 mm 4 mps 754 mmHg 72%
    11:00 +8°C° 0.1 mm 5 mps 754 mmHg 69%
    12:00 +9°C° 0.1 mm 5 mps 754 mmHg 66%
    13:00 +9°C° 0.1 mm 5 mps 754 mmHg 65%
    14:00 +9°C° 0.1 mm 5 mps 754 mmHg 64%
    15:00 +9°C° 0.1 mm 5 mps 754 mmHg 63%
    16:00 +7°C° 0 mm 4 mps 755 mmHg 66%
    17:00 +7°C° 0 mm 3 mps 755 mmHg 69%
    18:00 +5°C° 0 mm 3 mps 755 mmHg 72%
    19:00 +5°C° 0 mm 2 mps 756 mmHg 74%
    20:00 +3°C° 0 mm 2 mps 757 mmHg 76%
    21:00 +3°C° 0 mm 1 mps 757 mmHg 78%
    22:00 +3°C° 0 mm 1 mps 757 mmHg 80%
    23:00 +1°C° 0 mm 0 mps 758 mmHg 82%

    4 April, Saturday

    Time Temperature Precipitation Wind Pressure Humidity
    00:00 +1°C° 0 mm 0 mps 758 mmHg 84%
    01:00 +1°C° 0 mm 0 mps 758 mmHg 84%
    02:00 0°C° 0 mm 0 mps 758 mmHg 85%
    03:00 +1°C° 0 mm 1 mps 758 mmHg 85%
    04:00 +2°C° 0 mm 1 mps 759 mmHg 83%
    05:00 +2°C° 0 mm 1 mps 759 mmHg 81%
    06:00 +2°C° 0 mm 1 mps 760 mmHg 79%
    07:00 +5°C° 0 mm 1 mps 759 mmHg 70%
    08:00 +7°C° 0 mm 1 mps 759 mmHg 62%
    09:00 +8°C° 0 mm 2 mps 759 mmHg 53%
    10:00 +11°C° 0 mm 1 mps 759 mmHg 50%
    11:00 +12°C° 0 mm 1 mps 758 mmHg 48%
    12:00 +14°C° 0 mm 1 mps 758 mmHg 45%
    13:00 +14°C° 0 mm 1 mps 758 mmHg 46%
    14:00 +15°C° 0 mm 2 mps 757 mmHg 46%
    15:00 +15°C° 0 mm 2 mps 757 mmHg 47%
    16:00 +14°C° 0 mm 2 mps 757 mmHg 54%
    17:00 +12°C° 0 mm 1 mps 757 mmHg 61%
    18:00 +11°C° 0 mm 1 mps 756 mmHg 69%
    19:00 +9°C° 0 mm 2 mps 757 mmHg 72%
    20:00 +8°C° 0 mm 2 mps 757 mmHg 75%
    21:00 +7°C° 0 mm 3 mps 757 mmHg 79%
    22:00 +7°C° 0 mm 3 mps 757 mmHg 78%
    23:00 +7°C° 0 mm 3 mps 757 mmHg 77%

    5 April, Sunday

    Time Temperature Precipitation Wind Pressure Humidity
    00:00 +7°C° 0 mm 3 mps 757 mmHg 76%
    01:00 +5°C° 0 mm 3 mps 756 mmHg 77%
    02:00 +5°C° 0 mm 3 mps 756 mmHg 78%
    03:00 +5°C° 0 mm 3 mps 756 mmHg 79%
    04:00 +5°C° 0 mm 3 mps 756 mmHg 79%
    05:00 +5°C° 0 mm 3 mps 756 mmHg 78%
    06:00 +7°C° 0 mm 3 mps 756 mmHg 78%
    07:00 +8°C° 0 mm 4 mps 756 mmHg 72%
    08:00 +12°C° 0 mm 4 mps 756 mmHg 66%
    09:00 +14°C° 0 mm 5 mps 756 mmHg 60%
    10:00 +17°C° 0 mm 4 mps 755 mmHg 56%
    11:00 +18°C° 0 mm 4 mps 755 mmHg 52%
    12:00 +20°C° 0 mm 4 mps 754 mmHg 48%
    13:00 +20°C° 0 mm 4 mps 754 mmHg 48%
    14:00 +20°C° 0 mm 4 mps 754 mmHg 48%
    15:00 +20°C° 0 mm 4 mps 753 mmHg 48%
    16:00 +19°C° 0 mm 4 mps 753 mmHg 55%
    17:00 +17°C° 0 mm 3 mps 752 mmHg 62%
    18:00 +14°C° 0 mm 3 mps 752 mmHg 70%
    19:00 +13°C° 0 mm 3 mps 752 mmHg 71%
    20:00 +12°C° 0 mm 4 mps 752 mmHg 72%
    21:00 +11°C° 0 mm 4 mps 752 mmHg 72%
    22:00 +11°C° 0 mm 4 mps 752 mmHg 70%
    23:00 +11°C° 0 mm 4 mps 752 mmHg 67%
    Show more